Other Public Products
Issued by NWS Grand Forks, ND

Home | Current Version | Previous Version | Graphics & Text | Print | Product List | Glossary On
Versions: 1 2 3 4 5 6 7 8 9 10 11 12 13 14 15 16 17 18 19 20 21 22 23 24 25 26 27 28 29 30 31 32 33 34 35 36 37 38 39 40 41 42 43 44 45 46 47 48 49 50
000
FPUS83 KFGF 231231
OPUFGF
PRAIRIE TO PINES WEATHER ROUNDUP
NATIONAL WEATHER SERVICE EASTERN NORTH DAKOTA/GRAND FORKS ND
700 AM CDT WED JUL 23 2014

 **SATELLITE DATA USED TO AUGMENT SKY COVER AT AUTOMATED STATIONS**
 *****  WEATHER ACROSS EASTERN NORTH DAKOTA  *****

CITY           SKY/WX    TMP DP  RH WIND       PRES   REMARKS
GRAND FORKS    CLOUDY    59  57  93 NW3       30.30R
6HR MIN TEMP:  57; 6HR MAX TEMP:  61;

GRAND FORKS AF CLOUDY    58  58 100 N7        30.31R
GRAND CITY NWS   N/A     59 N/A N/A VRB1        N/A
BUXTON           N/A     60  59  98 N5          N/A
DEVILS LAKE    CLOUDY    61  54  77 E6        30.31R
6HR MIN TEMP:  61; 6HR MAX TEMP:  66;

FARGO          PTCLDY    60  56  86 CALM      30.29R
6HR MIN TEMP:  57; 6HR MAX TEMP:  62;

WAHPETON ARPT  SUNNY     55  52  88 CALM      30.30R
$$

 *****  WEATHER ACROSS CENTRAL AND WESTERN NORTH DAKOTA  *****

CITY           SKY/WX    TMP DP  RH WIND       PRES   REMARKS
JAMESTOWN      CLOUDY    62  58  86 CALM      30.31R
6HR MIN TEMP:  59; 6HR MAX TEMP:  64;

BISMARCK       PTCLDY    65  61  87 E7        30.27R
6HR MIN TEMP:  64; 6HR MAX TEMP:  67;

MINOT          LGT RAIN  63  62  97 NE7       30.26S FOG
6HR MIN TEMP:  63; 6HR MAX TEMP:  67; 6HR PCP:  0.22;

MINOT AFB      MOCLDY    63  63 100 E12       30.25S
6HR MIN TEMP:  63; 6HR MAX TEMP:  69; 6HR PCP: TRACE;

GARRISON         N/A     65  63  93 E7        30.25S
6HR MIN TEMP:  64; 6HR MAX TEMP:  69; 6HR PCP:  0.23;

WILLISTON      CLEAR     66  62  87 CALM      30.23R
6HR MIN TEMP:  62; 6HR MAX TEMP:  72;

DICKINSON      CLEAR     60  59  96 E8        30.22F
6HR MIN TEMP:  59; 6HR MAX TEMP:  64;

HETTINGER      CLEAR     61  58  90 SE8       30.24F
6HR MIN TEMP:  59; 6HR MAX TEMP:  63;

$$

 *****  OTHER OBSERVATIONS NORTHEAST NORTH DAKOTA  *****

CITY           SKY/WX    TMP DP  RH WIND       PRES   REMARKS
WALHALLA         N/A     59  59 100 N3          N/A
LANGDON        PTSUNNY   55  50  82 E5        30.33R
CAVALIER       FAIR      57  54  88 NW5       30.32R
GRAFTON        FAIR      57  57 100 N5        30.31R
CANDO          CLOUDY    59  55  88 CALM      30.34R
FORT TOTTEN    NOT AVBL
ROLLA          PTSUNNY   55  55 100 CALM      30.35R
RUGBY          FAIR      59  57  94 E9        30.31R
 ***** THE ABOVE OBSERVATIONS ARE NON NWS ARE NOT QUALITY
        CONTROLLED AND MAY MIS-REPORT RAIN FOR SNOW...
$$

 *****  OTHER OBSERVATIONS SOUTHEAST NORTH DAKOTA *****

CITY           SKY/WX    TMP DP  RH WIND       PRES   REMARKS
COOPERSTOWN    NOT AVBL
VALLEY CITY    FAIR      59  59 100 N3        30.31S
OAKES          NOT AVBL
GWINNER        MOSUNNY   64  63  94 CALM      30.30S
BUFFALO        NOT AVBL
WYNDMERE       NOT AVBL
 ***** THE ABOVE OBSERVATIONS ARE NON NWS ARE NOT QUALITY
       CONTROLLED AND MAY MIS-REPORT RAIN FOR SNOW...
$$

  *****  WEATHER ACROSS NORTHERN MINNESOTA  *****

CITY           SKY/WX    TMP DP  RH WIND       PRES   REMARKS
FLAG ISLAND    PTSUNNY   63  55  77 N8        30.28R
WARROAD        SUNNY     54  52  94 NW5       30.29R
ROSEAU         SUNNY     55  50  82 CALM      30.29R
HALLOCK        MOCLDY    57  55  94 N6        30.30S
THF RVR FALLS  MOCLDY    59  55  88 N3        30.30R
6HR MIN TEMP:  57; 6HR MAX TEMP:  63;

HALSTAD          N/A     57  55  95 NE3         N/A
FOSSTON        MOCLDY    55  52  88 CALM      30.30S
BAUDETTE       SUNNY     56  55  97 CALM      30.29R
6HR MIN TEMP:  54; 6HR MAX TEMP:  61;

WASKISH        CLOUDY    57  55  94 CALM      30.28R
CROOKSTON      CLOUDY    59  55  88 CALM      30.30R
$$
  *****  WEATHER ACROSS CENTRAL AND WEST MINNESOTA  *****

CITY           SKY/WX    TMP DP  RH WIND       PRES   REMARKS
BEMIDJI        SUNNY     57  55  93 NW5       30.29R
PARK RAPIDS    MOSUNNY   55  54  96 CALM      30.29R
6HR MIN TEMP:  51; 6HR MAX TEMP:  55;

WADENA         CLEAR     57  55  94 CALM      30.30R
DETROIT LAKES  PTCLDY    61  55  82 CALM      30.31S
MOORHEAD       PTCLDY    59  59 100 CALM      30.30R
FERGUS FALLS   CLEAR     61  54  77 CALM      30.29S
ELBOW LAKE     FAIR      63  58  84 NE3       30.30R
MORRIS MN      CLEAR     57  55  94 CALM      30.29F FOG
STAPLES        SUNNY     55  54  94 CALM      30.30R
WHEATON        PTCLDY    57  55  94 CALM      30.31F
$$
  *****  WEATHER ELSEWHERE ACROSS MINNESOTA  *****

CITY           SKY/WX    TMP DP  RH WIND       PRES   REMARKS
DULUTH         MOSUNNY   60  54  80 N7        30.25R
6HR MIN TEMP:  56; 6HR MAX TEMP:  60;

INTRNTL FALLS  PTSUNNY   61  54  77 NE5       30.27S
6HR MIN TEMP:  53; 6HR MAX TEMP:  62;

ELY            SUNNY     55  54  94 CALM      30.26S
CLOQUET        MOSUNNY   55  54  94 NW5       30.25S
BRAINERD       SUNNY     56  55  97 CALM      30.29R
6HR MIN TEMP:  51; 6HR MAX TEMP:  60;

HIBBING        MOSUNNY   59  55  87 CALM      30.27R
6HR MIN TEMP:  51; 6HR MAX TEMP:  59;

ALEXANDRIA     CLEAR     63  57  81 NE7       30.30S
6HR MIN TEMP:  58; 6HR MAX TEMP:  63;

SAINT CLOUD    SUNNY     60  55  83 NW6       30.27R
6HR MIN TEMP:  56; 6HR MAX TEMP:  63;

MINNEAPOLIS    MOSUNNY   65  57  75 NW7       30.25R
6HR MIN TEMP:  61; 6HR MAX TEMP:  70;

$$

  *****  WEATHER ACROSS SOUTH DAKOTA  *****

CITY           SKY/WX    TMP DP  RH WIND       PRES   REMARKS
SIOUX FALLS    MOCLDY    60  56  86 NE7       30.28R
6HR MIN TEMP:  57; 6HR MAX TEMP:  65;

BROOKINGS      NOT AVBL
WATERTOWN      CLEAR     57  54  89 N3        30.30F
6HR MIN TEMP:  52; 6HR MAX TEMP:  61;

HURON          MOCLDY    61  57  87 E6        30.27S
6HR MIN TEMP:  60; 6HR MAX TEMP:  66;

SISSETON         N/A     61  59  93 CALM      30.28S
ABERDEEN       PTCLDY    55  55 100 CALM      30.29R
6HR MIN TEMP:  54; 6HR MAX TEMP:  64;

MITCHELL       MOCLDY    63  58  83 CALM      30.30R
PIERRE         MOCLDY    64  59  83 E10       30.24R
6HR MIN TEMP:  64; 6HR MAX TEMP:  69;

MOBRIDGE       CLEAR     61  58  90 E8        30.24S
RAPID CITY     PTCLDY    64  57  78 S6        30.24F
6HR MIN TEMP:  60; 6HR MAX TEMP:  68; 6HR PCP:  0.46;

$$

  *****  SOME WEATHER IN NEARBY STATES *****

CITY           SKY/WX    TMP DP  RH WIND       PRES   REMARKS
GLASGOW MT     PTCLDY    60  57  89 SE7       30.18F
6HR MIN TEMP:  59; 6HR MAX TEMP:  67;

GREAT FALLS MT CLOUDY    58  55  90 SW13      30.18R
6HR MIN TEMP:  56; 6HR MAX TEMP:  67;

CHEYENNE WY    CLOUDY    62  60  93 S8        30.40R FOG
6HR MIN TEMP:  63; 6HR MAX TEMP:  71;

SCOTTSBLUFF NE CLOUDY    68  61  78 E17       30.35S
6HR MIN TEMP:  66; 6HR MAX TEMP:  75;

OMAHA NE       PTCLDY    64  58  80 N6        30.23R
6HR MIN TEMP:  63; 6HR MAX TEMP:  71;

DES MOINES IA  CLEAR     68  59  73 N7        30.17R
6HR MIN TEMP:  67; 6HR MAX TEMP:  75;

DAVENPORT IA   SUNNY     67  62  84 NE13      30.14R
6HR MIN TEMP:  66; 6HR MAX TEMP:  71;

CHICAGO IL     MOSUNNY   65  52  62 N17       30.11R
6HR MIN TEMP:  64; 6HR MAX TEMP:  74;

EAU CLAIRE WI  SUNNY     60  60 100 CALM      30.21R
6HR MIN TEMP:  55; 6HR MAX TEMP:  64;

LA CROSSE WI   SUNNY     66  61  84 N3        30.20S
6HR MIN TEMP:  61; 6HR MAX TEMP:  72;

$$

  *****  SOME NATIONAL WEATHER *****

CITY           SKY/WX    TMP DP  RH WIND       PRES   REMARKS
LA GUARDIA NY  MOSUNNY   76  65  68 SW8       29.99R
6HR MIN TEMP:  74; 6HR MAX TEMP:  76;



USA.gov is the U.S. government's official web portal to all federal, state and local government web resources and services.